Location: Pensacola
(30.4142°N, 87.2155°W)
Time: 17:22:58
(UTC-05:00)

OTV 5 (USA 277) - Visible Passes

Search period start: 17 June 2018 00:00
Search period end: 27 June 2018 00:00
Orbit: 313 x 320 km, 54.5° (Epoch: 16 June)

Date Brightness Start Highest point End Pass type
(mag) Time Alt. Az. Time Alt. Az. Time Alt. Az.
18 Jun ? 04:05:40 10° N 04:07:36 17° NE 04:09:32 10° E visible
18 Jun ? 20:20:51 10° WSW 20:23:18 32° NW 20:25:46 10° NNE visible
19 Jun ? 04:19:27 10° NNW 04:22:09 60° NE 04:24:49 10° SE visible
19 Jun ? 20:36:59 10° WNW 20:37:55 11° NW 20:38:51 10° NNW visible
20 Jun ? 03:01:27 10° NNE 03:01:41 10° NNE 03:01:41 10° NNE visible
